• în România
  • Lista ţărilor
  • Pe 7 zile
  • Temperatura apei
  • Hartă satelitară
  • Meteo pe hartă
  • Widget-uri
  • user-avatar
    Intrare

    Meteo pe oră la Georgetown

    Astăzi, 15 Octombrie, Luni

    Timp Temperatura Precipitaţii Vânt Presiune Umiditate
    00:00 +27°C° 0.1 mm 2 m/s 759 mmHg 88%
    01:00 +27°C° 0.1 mm 2 m/s 758 mmHg 89%
    02:00 +27°C° 0 mm 2 m/s 758 mmHg 90%
    03:00 +27°C° 0.6 mm 2 m/s 758 mmHg 92%
    04:00 +26°C° 0.6 mm 2 m/s 758 mmHg 93%
    05:00 +26°C° 0.6 mm 1 m/s 758 mmHg 95%
    06:00 +27°C° 0.7 mm 1 m/s 758 mmHg 93%
    07:00 +28°C° 0.7 mm 1 m/s 759 mmHg 91%
    08:00 +29°C° 0.7 mm 1 m/s 759 mmHg 89%
    09:00 +30°C° 0.7 mm 1 m/s 759 mmHg 81%
    10:00 +32°C° 0.7 mm 1 m/s 759 mmHg 74%
    11:00 +33°C° 0.7 mm 1 m/s 759 mmHg 67%
    12:00 +34°C° 0 mm 1 m/s 758 mmHg 62%
    13:00 +35°C° 0 mm 2 m/s 757 mmHg 56%
    14:00 +36°C° 0 mm 2 m/s 756 mmHg 51%
    15:00 +35°C° 0 mm 2 m/s 756 mmHg 57%
    16:00 +34°C° 0 mm 2 m/s 756 mmHg 62%
    17:00 +31°C° 0 mm 3 m/s 756 mmHg 68%
    18:00 +30°C° 0 mm 3 m/s 756 mmHg 73%
    19:00 +29°C° 0 mm 3 m/s 757 mmHg 79%
    20:00 +28°C° 0 mm 3 m/s 757 mmHg 84%
    21:00 +28°C° 0 mm 2 m/s 757 mmHg 85%
    22:00 +27°C° 0 mm 2 m/s 758 mmHg 87%
    23:00 +27°C° 0 mm 2 m/s 758 mmHg 89%

    Mâine, 16 Octombrie, Marţi

    Timp Temperatura Precipitaţii Vânt Presiune Umiditate
    00:00 +27°C° 0 mm 2 m/s 757 mmHg 90%
    01:00 +27°C° 0 mm 2 m/s 757 mmHg 91%
    02:00 +27°C° 0 mm 2 m/s 757 mmHg 92%
    03:00 +27°C° 0.7 mm 2 m/s 757 mmHg 93%
    04:00 +26°C° 0.7 mm 2 m/s 757 mmHg 94%
    05:00 +26°C° 0.7 mm 2 m/s 757 mmHg 96%
    06:00 +27°C° 0.5 mm 2 m/s 757 mmHg 92%
    07:00 +29°C° 0.5 mm 1 m/s 758 mmHg 89%
    08:00 +30°C° 0.5 mm 1 m/s 758 mmHg 85%
    09:00 +31°C° 0.1 mm 2 m/s 758 mmHg 77%
    10:00 +32°C° 0.1 mm 2 m/s 758 mmHg 69%
    11:00 +35°C° 0.1 mm 2 m/s 758 mmHg 61%
    12:00 +35°C° 0.4 mm 2 m/s 757 mmHg 62%
    13:00 +35°C° 0.4 mm 3 m/s 756 mmHg 63%
    14:00 +34°C° 0.4 mm 3 m/s 755 mmHg 63%
    15:00 +33°C° 0.1 mm 3 m/s 755 mmHg 68%
    16:00 +31°C° 0.1 mm 3 m/s 755 mmHg 73%
    17:00 +30°C° 0.1 mm 3 m/s 755 mmHg 77%
    18:00 +30°C° 0 mm 3 m/s 755 mmHg 80%
    19:00 +29°C° 0 mm 3 m/s 756 mmHg 84%
    20:00 +28°C° 0 mm 4 m/s 757 mmHg 87%
    21:00 +28°C° 0 mm 4 m/s 757 mmHg 87%
    22:00 +28°C° 0 mm 4 m/s 757 mmHg 88%
    23:00 +28°C° 0 mm 4 m/s 757 mmHg 88%

    Poimâine, 17 Octombrie, Miercuri

    Timp Temperatura Precipitaţii Vânt Presiune Umiditate
    00:00 +28°C° 0 mm 3 m/s 756 mmHg 88%
    01:00 +27°C° 0 mm 3 m/s 756 mmHg 88%
    02:00 +27°C° 0 mm 3 m/s 755 mmHg 89%
    03:00 +27°C° 0 mm 3 m/s 756 mmHg 90%
    04:00 +27°C° 0 mm 3 m/s 756 mmHg 90%
    05:00 +27°C° 0 mm 3 m/s 756 mmHg 91%
    06:00 +28°C° 0.5 mm 3 m/s 757 mmHg 88%
    07:00 +29°C° 0.5 mm 3 m/s 757 mmHg 86%
    08:00 +30°C° 0.5 mm 3 m/s 758 mmHg 83%
    09:00 +32°C° 0.5 mm 4 m/s 758 mmHg 78%
    10:00 +33°C° 0.5 mm 4 m/s 758 mmHg 72%
    11:00 +34°C° 0.5 mm 4 m/s 758 mmHg 67%
    12:00 +34°C° 0.1 mm 4 m/s 757 mmHg 64%
    13:00 +35°C° 0.1 mm 4 m/s 756 mmHg 61%
    14:00 +35°C° 0.1 mm 4 m/s 755 mmHg 58%
    15:00 +34°C° 0.1 mm 4 m/s 755 mmHg 64%
    16:00 +33°C° 0.1 mm 4 m/s 755 mmHg 69%
    17:00 +32°C° 0.1 mm 4 m/s 755 mmHg 74%
    18:00 +30°C° 0 mm 4 m/s 756 mmHg 78%
    19:00 +29°C° 0 mm 4 m/s 756 mmHg 82%
    20:00 +28°C° 0 mm 4 m/s 757 mmHg 87%
    21:00 +28°C° 0 mm 4 m/s 757 mmHg 86%
    22:00 +28°C° 0 mm 4 m/s 757 mmHg 85%
    23:00 +28°C° 0 mm 5 m/s 757 mmHg 85%

    18 Octombrie, Joi

    Timp Temperatura Precipitaţii Vânt Presiune Umiditate
    00:00 +28°C° 0.3 mm 5 m/s 756 mmHg 85%
    01:00 +28°C° 0.3 mm 4 m/s 756 mmHg 85%
    02:00 +28°C° 0.3 mm 4 m/s 755 mmHg 85%
    03:00 +28°C° 1.1 mm 4 m/s 755 mmHg 87%
    04:00 +27°C° 1.1 mm 4 m/s 755 mmHg 89%
    05:00 +27°C° 1.1 mm 4 m/s 756 mmHg 91%
    06:00 +28°C° 1.4 mm 4 m/s 756 mmHg 89%
    07:00 +28°C° 1.4 mm 5 m/s 757 mmHg 87%
    08:00 +29°C° 1.4 mm 5 m/s 758 mmHg 86%
    09:00 +30°C° 0.4 mm 5 m/s 758 mmHg 83%
    10:00 +32°C° 0.4 mm 5 m/s 758 mmHg 79%
    11:00 +32°C° 0.4 mm 4 m/s 758 mmHg 76%
    12:00 +32°C° 0.5 mm 4 m/s 757 mmHg 78%
    13:00 +32°C° 0.5 mm 4 m/s 756 mmHg 79%
    14:00 +32°C° 0.5 mm 4 m/s 755 mmHg 80%
    15:00 +32°C° 0 mm 4 m/s 755 mmHg 79%
    16:00 +30°C° 0 mm 4 m/s 755 mmHg 78%
    17:00 +30°C° 0 mm 4 m/s 755 mmHg 77%
    18:00 +30°C° 0 mm 4 m/s 756 mmHg 80%
    19:00 +29°C° 0 mm 4 m/s 756 mmHg 84%
    20:00 +28°C° 0 mm 4 m/s 757 mmHg 87%
    21:00 +28°C° 0 mm 4 m/s 757 mmHg 87%
    22:00 +28°C° 0 mm 4 m/s 757 mmHg 87%
    23:00 +28°C° 0 mm 4 m/s 757 mmHg 87%

    19 Octombrie, Vineri

    Timp Temperatura Precipitaţii Vânt Presiune Umiditate
    00:00 +28°C° 0.5 mm 4 m/s 756 mmHg 88%
    01:00 +28°C° 0.5 mm 4 m/s 756 mmHg 88%
    02:00 +28°C° 0.5 mm 4 m/s 755 mmHg 88%
    03:00 +28°C° 0.4 mm 4 m/s 755 mmHg 88%
    04:00 +28°C° 0.4 mm 4 m/s 756 mmHg 88%
    05:00 +28°C° 0.4 mm 4 m/s 756 mmHg 88%
    06:00 +28°C° 0.8 mm 4 m/s 756 mmHg 89%
    07:00 +28°C° 0.8 mm 4 m/s 757 mmHg 90%
    08:00 +29°C° 0.8 mm 4 m/s 757 mmHg 91%
    09:00 +29°C° 1.1 mm 3 m/s 757 mmHg 89%
    10:00 +30°C° 1.1 mm 3 m/s 757 mmHg 87%
    11:00 +31°C° 1.1 mm 3 m/s 757 mmHg 85%
    12:00 +31°C° 0.7 mm 3 m/s 756 mmHg 81%
    13:00 +33°C° 0.7 mm 3 m/s 755 mmHg 78%
    14:00 +33°C° 0.7 mm 3 m/s 754 mmHg 74%
    15:00 +33°C° 0.2 mm 3 m/s 754 mmHg 75%
    16:00 +31°C° 0.2 mm 3 m/s 754 mmHg 77%
    17:00 +30°C° 0.2 mm 3 m/s 755 mmHg 78%
    18:00 +29°C° 0 mm 3 m/s 755 mmHg 82%
    19:00 +28°C° 0 mm 3 m/s 756 mmHg 87%
    20:00 +27°C° 0 mm 3 m/s 756 mmHg 91%
    21:00 +27°C° 0.8 mm 3 m/s 756 mmHg 93%
    22:00 +27°C° 0.8 mm 3 m/s 756 mmHg 95%
    23:00 +27°C° 0.8 mm 3 m/s 756 mmHg 97%

    20 Octombrie, Sâmbătă

    Timp Temperatura Precipitaţii Vânt Presiune Umiditate
    00:00 +27°C° 0.4 mm 3 m/s 756 mmHg 96%
    01:00 +27°C° 0.4 mm 3 m/s 755 mmHg 96%
    02:00 +27°C° 0.4 mm 3 m/s 755 mmHg 96%
    03:00 +27°C° 0.5 mm 3 m/s 755 mmHg 95%
    04:00 +27°C° 0.5 mm 3 m/s 755 mmHg 95%
    05:00 +27°C° 0.5 mm 3 m/s 755 mmHg 94%
    06:00 +27°C° 0.6 mm 3 m/s 756 mmHg 94%
    07:00 +28°C° 0.6 mm 3 m/s 756 mmHg 93%
    08:00 +28°C° 0.6 mm 3 m/s 757 mmHg 92%
    09:00 +29°C° 0.6 mm 3 m/s 757 mmHg 91%
    10:00 +29°C° 0.6 mm 3 m/s 757 mmHg 89%
    11:00 +30°C° 0.6 mm 3 m/s 757 mmHg 87%
    12:00 +30°C° 0.3 mm 3 m/s 756 mmHg 86%
    13:00 +29°C° 0.3 mm 3 m/s 755 mmHg 84%
    14:00 +29°C° 0.3 mm 3 m/s 754 mmHg 83%
    15:00 +29°C° 0 mm 2 m/s 754 mmHg 84%
    16:00 +28°C° 0 mm 2 m/s 754 mmHg 86%
    17:00 +28°C° 0 mm 2 m/s 754 mmHg 87%
    18:00 +27°C° 0 mm 2 m/s 755 mmHg 88%
    19:00 +27°C° 0 mm 2 m/s 755 mmHg 89%
    20:00 +27°C° 0 mm 2 m/s 756 mmHg 90%
    21:00 +26°C° 0 mm 2 m/s 756 mmHg 91%
    22:00 +26°C° 0 mm 2 m/s 756 mmHg 91%
    23:00 +26°C° 0 mm 2 m/s 756 mmHg 92%
    Arată mai mult